Location: Ab? ar R?sh Qibl?
(24.1397°N, 32.8965°E)
Time: 15:50:48
(UTC+00:00)

Daily predictions for brighter satellites

Satellite Brightness Start Highest point End
(mag) Time Altitude Azimuth Time Altitude Azimuth Time Altitude Azimuth
CZ-2C R/B 2.8 15:32:39 10° NW 15:35:16 18° N 15:37:47 10° NE
CZ-4C R/B 3.6 15:32:34 10° NE 15:35:29 31° E 15:38:21 10° SSE
SKYMED 2 3.6 15:32:35 10° NNE 15:36:52 62° ESE 15:41:09 10° S
USA 229 DEB 3.6 15:32:56 10° SSW 15:39:09 87° WNW 15:45:40 10° NNE
USA 229 3.6 15:33:03 10° SSW 15:39:16 88° WNW 15:45:46 10° NNE
CZ-2D R/B 3.5 15:36:45 10° SSE 15:40:25 46° ENE 15:44:07 10° N
Cosmos 304 Rocket 3.7 15:35:46 10° S 15:40:32 80° ESE 15:45:19 10° NNE
Cosmos 1934 Rocket 3.9 15:36:48 10° S 15:42:55 79° E 15:48:59 10° N
Cosmos 1544 Rocket 3.6 15:38:48 10° S 15:43:14 81° E 15:47:42 10° N
Cosmos 2237 4.2 15:37:36 10° SSW 15:43:16 75° ESE 15:48:59 10° NNE
H-2A R/B 3.6 15:41:00 10° ENE 15:43:39 16° E 15:46:20 10° SE
Milstar 3 Cent rocket 2.8 15:38:50 10° SW 15:43:51 61° SSE 15:52:18 11° ENE
Centaur AC-112 4.4 15:17:43 10° W 15:44:24 76° N 15:48:57 10° E
MOS 1-B Rocket 3.9 15:39:20 10° NNE 15:45:16 63° ESE 15:50:47 10° S
Centaur D-1A AC-32 4.0 15:28:18 10° WSW 15:47:36 57° S 15:51:52 11° E
Meteor 2-10 Rocket 4.0 15:42:41 10° SSE 15:48:05 45° E 15:53:18 10° NNE
Landsat 5 3.7 15:47:43 10° NNE 15:52:13 90° E 15:56:44 10° SSW
Cosmos 1328 3.9 15:51:05 10° N 15:55:02 54° E 15:58:58 10° SSE
H-2A R/B 2.2 15:50:01 10° SSE 15:55:15 61° ENE 16:00:36 10° N
NOSS 2-2 (C) 4.0 15:52:30 10° S 15:55:55 29° ESE 15:58:20 14° ENE
Okean O Rocket 1.9 15:53:17 10° SE 15:57:20 40° ENE 16:01:24 10° N
COSMOS 2428 4.0 15:57:04 10° SE 16:00:47 18° E 16:02:50 15° ENE
GPS 2-12 Rocket1 3.9 15:56:53 10° WSW 16:01:23 42° S 16:05:02 15° ESE
NOSS 3-1 (A) 4.1 15:57:15 10° SW 16:02:02 46° WNW 16:07:18 10° NNE
Lacrosse 4 Rocket 3.4 16:00:46 10° NE 16:02:09 12° NE 16:02:09 12° NE
deb Chang Zheng 4 3.4 15:58:41 10° SSE 16:02:51 81° ENE 16:07:03 10° N
IRIS 3.3 16:02:50 10° NW 16:05:08 77° NE 16:06:34 21° ESE
OAO 3 Rocket 4.0 16:02:12 10° W 16:06:44 43° NNW 16:10:34 14° NE
Cosmos 2333 4.4 16:02:42 10° S 16:08:01 46° ESE 16:13:22 10° NNE
Cosmos 1455 3.2 16:07:32 10° SSE 16:10:43 25° E 16:11:48 22° ENE
SL-16 R/B 4.1 16:06:36 10° SW 16:11:30 30° WNW 16:16:26 10° N
USA 267 3.9 16:06:39 14° ESE 16:11:34 35° NE 16:17:21 10° NNW
Hubble Space Telescope 2.8 16:12:41 10° S 16:15:01 15° SSE 16:16:06 13° SE
DMSP B5D2-2 4.2 16:10:40 10° NNE 16:15:43 49° E 16:20:43 10° S
Cosmos 724 4.2 16:10:06 10° NNW 16:15:57 76° ENE 16:21:41 10° SSE
CZ-3 Stage 3 3.8 15:56:30 10° W 16:20:05 58° N 16:23:12 24° ENE
Cosmos 1602 Rocket 3.9 16:16:09 10° NNE 16:20:10 38° E 16:24:11 10° SSE
Cosmos 2322 Rocket 4.0 16:18:49 10° SW 16:23:44 32° WNW 16:28:42 10° N
Cosmos 2123 Rocket 4.1 16:17:29 10° N 16:23:48 82° W 16:30:03 10° S
Cosmos 1269 Rocket 4.4 16:18:56 10° NNW 16:24:10 67° WSW 16:29:23 10° S
CZ-4 R/B 2.1 16:25:03 31° ENE 16:25:03 31° ENE 16:28:11 10° NNE
DELTA 2 R/B (1) 3.9 16:20:12 10° SW 16:25:33 47° SE 16:27:56 29° E
Okean 1-7 Rocket 4.0 16:22:38 10° NNW 16:27:02 64° W 16:31:27 10° S
Cosmos 2219 Rocket 2.3 16:24:56 10° S 16:30:16 50° ESE 16:33:54 20° NE
SJ-11-01 4.2 16:26:33 10° SSE 16:31:13 89° E 16:35:54 10° NNW
Cosmos 1459 Rocket 4.4 16:27:17 10° SSE 16:32:57 37° E 16:38:33 10° NNE
Cosmos 2360 Rocket 3.1 16:27:56 10° SW 16:33:20 48° WNW 16:38:47 10° N
SL-08 RB Rocket 3.6 16:29:57 10° SSE 16:34:22 58° ENE 16:38:52 10° N
Cosmos 2100 Rocket 4.2 16:29:37 10° SSE 16:35:30 44° E 16:41:27 10° NNE
ARGOS 3.2 16:34:26 10° S 16:39:49 82° WSW 16:45:15 10° NNW
Cosmos 2333 Rocket 2.1 16:34:21 10° SSW 16:40:00 83° ESE 16:45:28 11° NNE
Feng Yun 1-1 Rocket 4.1 16:35:24 10° SSE 16:40:51 73° ENE 16:46:28 10° N
Cosmos 2228 2.9 16:36:54 10° S 16:41:16 87° E 16:45:39 10° N
H-2A R/B 2.4 16:37:33 10° SSE 16:41:55 74° ENE 16:46:09 10° N
Cosmos 2251 Rocket 4.1 16:39:06 10° N 16:42:56 35° NE 16:42:56 35° NE
CZ-4B R/B 4.4 16:40:13 10° S 16:45:33 44° W 16:50:56 10° NNW
Cosmos 2173 Rocket 4.0 16:41:54 10° SSE 16:47:50 54° E 16:53:51 10° NNE
NOSS 2-2 (D) 4.1 16:46:41 10° SW 16:50:18 43° WNW 16:51:18 33° NNW
Palapa B4 Rocket 4.5 16:46:41 10° WSW 16:52:29 63° S 16:55:59 37° ESE
CZ-3B R/B 3.5 16:58:53 10° WSW 16:59:57 18° WSW 16:59:57 18° WSW
Cosmos 2322 4.0 16:57:27 10° SSW 17:03:06 68° WNW 17:07:18 19° N
In-Cosmos 22 Rocket 4.0 16:58:14 10° N 17:03:33 84° W 17:08:54 10° S
Cosmos 2263 Rocket 4.3 16:59:23 10° NW 17:03:51 25° WSW 17:08:19 10° SSW
YAOGAN 1 2.8 17:01:36 10° S 17:05:52 66° WSW 17:10:09 10° NNW
Cosmos 614 Rocket 4.3 17:07:44 10° NNW 17:11:35 53° NNW 17:11:35 53° NNW
NATO 3D Rocket 3.7 17:10:07 10° WSW 17:14:03 56° SW 17:14:03 56° SW
Cosmos 839 Rocket 3.8 17:08:06 10° NNW 17:14:47 80° ENE 17:15:09 76° ESE
CZ-2C R/B 3.4 17:11:43 10° NW 17:12:44 18° NW 17:12:44 18° NW
Cosmos 2056 Rocket 3.5 17:10:08 10° SSW 17:15:08 75° W 17:15:08 75° W
CZ-3B Rocket 3.2 17:12:14 10° WSW 17:16:27 54° SSE 17:17:50 48° SE
H-2A R/B 4.1 17:16:03 10° NNW 17:19:29 25° WNW 17:22:57 10° SW
Lacrosse 5 3.0 17:18:47 10° SSW 17:21:44 36° SSW 17:21:44 36° SSW
CZ-4C R/B 3.1 17:24:17 10° SW 17:26:41 32° SW 17:26:41 32° SW
H-II Stage 2 4.3 17:25:36 10° W 17:29:35 89° N 17:30:22 74° E
Cosmos 1844 Rocket 4.2 17:31:08 10° NNW 17:33:26 26° NNW 17:33:26 26° NNW
Lacrosse 4 Rocket 4.0 17:37:22 10° NW 17:38:32 17° NW 17:38:32 17° NW
COSMOS 2428 3.8 17:39:23 10° SW 17:44:38 39° WNW 17:44:57 39° WNW
USA 267 4.0 17:54:03 46° SW 17:54:20 46° SW 18:00:33 10° NW
Milstar 3 Cent rocket 3.8 18:15:23 10° W 18:21:08 60° WNW 18:21:08 60° WNW
CZ-3 Stage 3 3.9 18:06:28 10° WNW 18:24:26 56° W 18:24:26 56° W
